Regional Weather Roundup
Issued by NWS

Home | Current Version | Previous Version | Graphics & Text | Print | Product List | Glossary On
Versions: 1 2 3 4 5 6 7 8 9 10 11 12 13 14 15 16 17 18 19 20 21 22 23 24 25 26 27 28 29 30 31 32 33 34 35 36 37 38 39 40 41 42 43 44 45 46 47 48 49 50
000
ASUS43 KLOT 272109
RWRIL

ILLINOIS REGIONAL WEATHER ROUNDUP
NATIONAL WEATHER SERVICE CHICAGO/ROMEOVILLE IL
400 PM CDT SAT MAY 27 2017

NOTE: "FAIR" INDICATES FEW OR NO CLOUDS BELOW 12,000 FEET WITH NO
SIGNIFICANT WEATHER AND/OR OBSTRUCTIONS TO VISIBILITY.

* THESE STATIONS ARE NOT UNDER NWS QUALITY CONTROL. THEY ALSO MAY NOT
  REPORT WEATHER SUCH AS PRECIPITATION OR FOG.

ILZ001-002-007-009-015-016-024-272200-
NORTHWEST ILLINOIS

CITY           SKY/WX    TMP DP  RH WIND       PRES   REMARKS
MOLINE         CLOUDY    74  61  63 SE3       29.86R
STERLING*      SUNNY     75  63  66 NE8       29.83F
SAVANNA*       SUNNY     74  56  54 NE3       29.83F
$$

ILZ003-004-008-010-011-017-018-272200-
NORTH CENTRAL ILLINOIS

CITY           SKY/WX    TMP DP  RH WIND       PRES   REMARKS
ROCKFORD       PTSUNNY   76  61  59 CALM      29.87F
FREEPORT*      MOSUNNY   73  59  62 CALM      29.88F
ROCHELLE*      SUNNY     75  60  60 CALM      29.86F
DE KALB*       MOSUNNY   76  64  66 NE3       29.87S
PERU*          CLOUDY    76  61  59 CALM      29.85F
$$

ILZ005-006-012>014-019>023-272200-
NORTHEAST ILLINOIS

CITY           SKY/WX    TMP DP  RH WIND       PRES   REMARKS
CHICAGO-OHARE  CLOUDY    77  58  51 E14       29.85F
CHICAGO-MIDWAY CLOUDY    73  57  57 E10       29.86F
AURORA         SUNNY     77  58  51 CALM      29.87S
LANSING*       CLOUDY    72  62  70 NE6       29.86F
JOLIET*        SUNNY     78  60  53 N5        29.86R HX  80
WAUKEGAN       SUNNY     67  55  65 E8        29.87F
DUPAGE AIRPORT SUNNY     76  59  55 CALM      29.85F
KANKAKEE*      MOSUNNY   81  60  49 CALM      29.87S HX  81
WHEELING       SUNNY     71  58  63 E9        29.87F
MORRIS*        SUNNY     77  59  54 CALM      29.85S
ROMEOVILLE*    SUNNY     76  63  63 E3        29.86R
$$

LMZ740>746-272200-
SOUTHERN LAKE MICHIGAN

STATION/POSITION SKY/WX   TEMP    WIND        PRES    VSBY  WAVE
                          AIR SEA DIR/SP/G                  HT/PER
                          (F)     (DEG/KT/KT) (MB)    (MI)  (FT/S)
SOUTHERN BUOY              52 50  320/  4/  4 1013.6          0
WILMETTE HARBOR            54 55                N/A           1
HARRISON CRIB              56      50/ 12/ 13   N/A
BURNHAM HARBOR             60      40/  7/  7   N/A
CALUMET HARBOR             59      30/  5/  9 1011.0F
BURNS HARBOR               57      50/  7/  8 1012.5F
MICHIGAN CITY              54      30/  5/  5   N/A
MICHIGAN CITY 6N           54 57   60/  6/  6   N/A           1/ 2
ST. JOSEPH                 58 60   50/  8/ 10 1012.4          1/ 2
$$

ILZ025>027-034>036-040-047-049-050-058-095>099-272200-
WEST-CENTRAL ILLINOIS

CITY           SKY/WX    TMP DP  RH WIND       PRES   REMARKS
QUINCY         CLOUDY    77  61  57 E7        29.84F
GALESBURG*     CLOUDY    74  63  68 SE5       29.86F
MACOMB*        CLOUDY    74  63  66 SE3       29.87F
JACKSONVILLE*  CLOUDY    77  63  61 CALM      29.85F
PITTSFIELD*    CLOUDY    76  65  67 E8        29.83F
$$

ILZ028>032-037-038-041>044-048-051>054-059>061-272200-
CENTRAL ILLINOIS

CITY           SKY/WX    TMP DP  RH WIND       PRES   REMARKS
PONTIAC        MOSUNNY   77  64  63 CALM      29.88R
BLOOMINGTON    SUNNY     79  63  57 S7        29.87S HX  80
DECATUR        CLOUDY    77  65  66 E7        29.87S
PEORIA         MOSUNNY   76  61  59 CALM      29.87R
LACON*         CLOUDY    76  63  64 S6        29.87R
LINCOLN*       SUNNY     82  60  48 SE3       29.84F HX  82
SPRINGFIELD    MOSUNNY   80  63  55 E3        29.85S HX  81
TAYLORVILLE    CLOUDY    77  62  59 S3        29.85F
$$

ILZ033-039-045-046-055>057-062-063-272200-
EAST-CENTRAL ILLINOIS

CITY           SKY/WX    TMP DP  RH WIND       PRES   REMARKS
CHAMPAIGN      MOSUNNY   74  64  71 NE6       29.87F
RANTOUL*       MOSUNNY   75  64  70 CALM      29.88S
MATTOON        PTSUNNY   77  65  66 CALM      29.84F
PARIS*         SUNNY     74  65  73 NE5       29.87F
$$

ILZ079-100>102-272200-
SOUTHWEST ILLINOIS

CITY           SKY/WX    TMP DP  RH WIND       PRES   REMARKS
ALTON          CLOUDY    75  64  69 NE6       29.83F
BELLEVILLE     PTSUNNY   80  69  68 NE8       29.83R HX  83
CAHOKIA*       CLOUDY    78  68  71 NW3       29.82R HX  80
SPARTA*        CLOUDY    72  59  65 S9        29.82F
$$

ILZ064>066-069>071-074>076-080>082-084>086-088>090-092>094-272200-
SOUTH-CENTRAL ILLINOIS

CITY           SKY/WX    TMP DP  RH WIND       PRES   REMARKS
CARBONDALE     TSTM      69  61  75 NE9G35    29.84F
CAIRO*         CLOUDY    78  68  70 S8        29.84S THUNDER HX  80
EFFINGHAM*     PTSUNNY   78  66  66 CALM      29.87S HX  80
MT. VERNON     TSTM      65  61  87 S16G44    29.83F
CENTRALIA*     CLOUDY    79  72  79 SE8       29.79F HX  82
SALEM*         LGT RAIN  80  69  69 E6        29.80F HX  82
METROPOLIS*    CLOUDY    83  72  70 W5        29.83F THUNDER HX  88
$$

ILZ067-068-072-073-078-083-087-091-272200-
SOUTHEAST ILLINOIS

CITY           SKY/WX    TMP DP  RH WIND       PRES   REMARKS
LAWRENCEVILLE  CLOUDY    83  68  60 NW6       29.83F HX  86
FLORA*         CLOUDY    83  67  57 CALM      29.84F HX  86
FAIRFIELD*     CLOUDY    82  69  65 CALM      29.83S HX  85
HARRISBURG*    CLOUDY    80  70  71 W8        29.85R HX  83
ROBINSON*      CLOUDY    79  65  62 NW6       29.84F HX  81
CARMI*         TSTM      75  71  87 W10       29.83F
$$

ABBREVIATIONS USED IN REMARKS
   TC - TEMPERATURE IN CELSIUS
  WCI - WIND CHILL INDEX
   HX - HEAT INDEX
  VSB - VISIBILITY
$$





USA.gov is the U.S. government's official web portal to all federal, state and local government web resources and services.